[[{"header":{"parameterUnit":"m.s-1","parameterCategory":1,"la1":30.2991,"la2":30.254,"lo1":-89.0895,"lo2":-89.0444,"dy":0.0017,"dx":0.0017,"nx":28,"ny":28,"refTime":"2024-02-28T09:00:00:Z","depth":0,"parameterNumber":2,"parameterNumberName":"U-component_of_WINDS"},"data":[0,0,0,0,0,0,0,0,0,0,0,0,0,0,0,0,0,0,0,0,0,0,0,0,0,0,0,0,0,0,0,0,0,0,0,0,0,0,0,0,0,0,0,0,0,0,0,0,0,0,0,0,0,0,0,0,0,0,0.3017,0.3016,0,0.2917,0.2915,0.2914,0.2879,0.2879,0.2879,0.288,0.2773,0.2769,0.2766,0,0,0,0,0,0,0,0,0,0,0,0,0,0.3174,0.3171,0.3017,0.3016,0.3015,0.2917,0.2915,0.2914,0.2879,0.2879,0.2879,0.288,0.2774,0.277,0.2766,0,0,0,0,0,0,0,0,0,0,0,0,0,0.3093,0.3171,0.3018,0.2986,0.2982,0.2917,0.2915,0.2914,0.2878,0.2879,0.288,0.288,0.2775,0.277,0.2765,0.2724,0,0,0.2751,0.2749,0,0,0,0,0,0,0,0,0.3098,0.3087,0.2991,0.2988,0.2983,0.2911,0.2931,0.285,0.2878,0.2917,0.288,0.288,0.2818,0.2809,0.2789,0.2719,0.2715,0.275,0.2747,0.2745,0.2744,0,0,0,0,0,0,0,0.3103,0.3091,0.2977,0.299,0.2985,0.2974,0.2963,0.2916,0.2865,0.2914,0.2911,0.29,0.2816,0.2794,0.2786,0.2713,0.275,0.2746,0.2743,0.2741,0.2602,0.2601,0,0,0,0,0,0,0.3115,0.3096,0.2981,0.2974,0.3043,0.2971,0.2959,0.2933,0.2866,0.2856,0.29,0.2899,0.2802,0.2792,0.2782,0.2729,0.2745,0.2741,0.2738,0.2603,0.2602,0.2601,0,0,0,0,0,0,0.3118,0.3105,0.2985,0.3034,0.3018,0.2968,0.2939,0.2931,0.2909,0.2855,0.2846,0.2887,0.2802,0.2789,0.2739,0.2724,0.2739,0.2734,0.2603,0.2602,0.2601,0.2621,0,0,0,0,0,0,0.3123,0.3106,0.3092,0.3035,0.3016,0.2944,0.2939,0.2929,0.2902,0.29,0.2841,0.2832,0.2801,0.2746,0.2734,0.2718,0.273,0.2605,0.2603,0.2601,0.2622,0.2621,0.262,0,0,0,0,0,0.3129,0.3101,0.3091,0.3077,0.2997,0.2944,0.2933,0.29,0.2901,0.2884,0.2849,0.2833,0.2728,0.2741,0.2727,0.271,0.2605,0.2603,0.2602,0.2622,0.2621,0.2621,0,0,0,0,0,0,0.3157,0.3093,0.3081,0.3034,0.2995,0.2938,0.2916,0.29,0.2858,0.2858,0.2818,0.2804,0.2757,0.2728,0.2744,0.2665,0.2665,0.2661,0.2686,0.2685,0.2684,0.2692,0.2726,0,0,0,0,0,0.3158,0.3121,0.3067,0.3031,0.3011,0.2967,0.2943,0.2921,0.2878,0.2861,0.2822,0.2779,0.2736,0.2709,0.2666,0.2617,0.2603,0.2598,0.2597,0.2597,0.2593,0.2564,0.256,0.2595,0.2595,0.2595,0,0,0.3158,0.3119,0.3099,0.3035,0.3002,0.2964,0.2954,0.2914,0.2884,0.2854,0.2804,0.2774,0.2723,0.2673,0.2649,0.2648,0.2581,0.2595,0.2595,0.2591,0.2561,0.2558,0.2555,0.2593,0.2594,0.2594,0,0,0.3141,0.3108,0.3074,0.3041,0.2991,0.2961,0.2953,0.2898,0.2877,0.2827,0.2802,0.2766,0.2693,0.2658,0.2631,0.2598,0.2581,0.2585,0.2581,0.2553,0.255,0.2547,0.2535,0.2531,0.2581,0.2582,0.2582,0,0.3148,0.3091,0.3058,0.3019,0.2991,0.2963,0.2926,0.2895,0.2833,0.2814,0.2814,0.2721,0.2685,0.2625,0.2617,0.2596,0.2584,0.2592,0.2554,0.2551,0.2548,0.2535,0.253,0.2582,0.2582,0.2582,0.2582,0,0.3102,0.3062,0.304,0.2983,0.2952,0.2915,0.2874,0.2846,0.2827,0.2797,0.2744,0.27,0.2648,0.2632,0.2612,0.2569,0.2569,0.2562,0.2561,0.2546,0.2533,0.2528,0.2583,0.2583,0.2583,0.2583,0,0,0.3099,0.3023,0.3016,0.2988,0.293,0.2898,0.2859,0.2809,0.2785,0.2743,0.2708,0.2646,0.2639,0.2607,0.2583,0.2558,0.2533,0.2553,0.2551,0.255,0.2481,0.2487,0.2482,0.2522,0.2521,0.252,0.2485,0,0.3073,0.3004,0.2972,0.2915,0.2877,0.2849,0.2814,0.2774,0.2744,0.2706,0.2673,0.263,0.2624,0.2604,0.2579,0.2542,0.2519,0.2544,0.2487,0.2485,0.25,0.2476,0.2482,0.2451,0.248,0.2479,0.2479,0,0.3034,0.2993,0.2933,0.2879,0.2862,0.2831,0.2782,0.2747,0.2699,0.2679,0.2644,0.2621,0.2576,0.2578,0.2515,0.2533,0.2507,0.2486,0.2484,0.2477,0.2481,0.2467,0.2441,0.2436,0.2471,0.2471,0.2472,0,0.3037,0.2967,0.2922,0.2899,0.2835,0.2814,0.2786,0.2739,0.2711,0.2667,0.2647,0.2598,0.2571,0.2533,0.2496,0.2502,0.2436,0.2436,0.2417,0.2418,0.2404,0.2405,0.2373,0.2389,0.2389,0.2389,0.2389,0,0.3011,0.2976,0.2922,0.2894,0.2852,0.2815,0.2774,0.2744,0.2702,0.2667,0.2638,0.2605,0.2559,0.2519,0.2489,0.244,0.2428,0.241,0.2402,0.2412,0.2414,0.2395,0.2396,0.2387,0.2388,0.2388,0.2388,0,0.3008,0.2971,0.2919,0.2863,0.2847,0.2819,0.277,0.274,0.2709,0.2664,0.2651,0.2602,0.2553,0.2513,0.2449,0.2429,0.2378,0.2369,0.2394,0.239,0.2373,0.2375,0.2326,0.2317,0.234,0.234,0.234,0,0.2994,0.2966,0.2906,0.2881,0.2853,0.2813,0.2784,0.2745,0.2715,0.2659,0.2636,0.2586,0.2543,0.2467,0.2424,0.2374,0.2364,0.235,0.2356,0.2367,0.2363,0.2365,0.2361,0.235,0.235,0.235,0.235,0,0.2972,0.2955,0.2915,0.2868,0.2834,0.2795,0.2754,0.2735,0.2688,0.2656,0.2607,0.2574,0.2509,0.2458,0.2404,0.2373,0.2353,0.2348,0.2341,0.235,0.2366,0.2356,0.2392,0.2349,0.2349,0.2349,0.2349,0.2349,0.2962,0.2935,0.2889,0.2844,0.281,0.2773,0.2743,0.2708,0.2667,0.2612,0.2591,0.254,0.2491,0.2417,0.2385,0.2344,0.2341,0.2331,0.2328,0.2326,0.2327,0.2373,0.2334,0.2333,0.2333,0.2333,0.2333,0,0.2938,0.2906,0.2866,0.2811,0.2776,0.2762,0.2716,0.2687,0.2643,0.26,0.256,0.2502,0.2453,0.2406,0.2354,0.233,0.2319,0.2317,0.2318,0.2311,0.2333,0.2344,0.2327,0.2327,0.2327,0.2327,0.2327,0.2327,0.2921,0.2875,0.2852,0.2788,0.2756,0.2707,0.2682,0.2647,0.2613,0.255,0.251,0.248,0.2435,0.2379,0.2333,0.232,0.2302,0.2303,0.2287,0.2308,0.231,0.2311,0.2321,0.2299,0.2299,0.2269,0.2268,0.2268]},{"header":{"parameterUnit":"m.s-1","parameterCategory":1,"la1":30.2991,"la2":30.254,"lo1":-89.0895,"lo2":-89.0444,"dy":0.0017,"dx":0.0017,"nx":28,"ny":28,"refTime":"2024-02-28T09:00:00:Z","depth":0,"parameterNumber":3,"parameterNumberName":"V-component_of_WINDS"},"data":[0,0,0,0,0,0,0,0,0,0,0,0,0,0,0,0,0,0,0,0,0,0,0,0,0,0,0,0,0,0,0,0,0,0,0,0,0,0,0,0,0,0,0,0,0,0,0,0,0,0,0,0,0,0,0,0,0,0,4.9969,4.9969,0,4.9998,4.9999,4.9999,5.0,5.0,4.9999,4.9999,5.0026,5.0027,5.0028,0,0,0,0,0,0,0,0,0,0,0,0,0,4.991,4.9911,4.9969,4.9969,4.9969,4.9998,4.9999,4.9999,5.0,5.0,4.9999,4.9999,5.0026,5.0027,5.0028,0,0,0,0,0,0,0,0,0,0,0,0,0,4.9937,4.9912,4.9969,4.9974,4.9974,4.9998,4.9999,4.9999,5.0,5.0,4.9999,4.9999,5.0025,5.0027,5.0029,5.0049,0,0,5.0033,5.0034,0,0,0,0,0,0,0,0,4.9936,4.9939,4.9972,4.9973,4.9974,4.9995,4.9988,5.0016,5.0,4.999,4.9999,4.9999,5.0016,5.0018,5.0025,5.005,5.0051,5.0033,5.0034,5.0035,5.0036,0,0,0,0,0,0,0,4.9934,4.9938,4.998,4.9973,4.9974,4.9973,4.9977,4.9993,5.0006,4.9991,4.9991,4.9995,5.0016,5.0024,5.0026,5.0052,5.0033,5.0035,5.0036,5.0036,5.0096,5.0097,0,0,0,0,0,0,4.9932,4.9937,4.9979,4.9981,4.9953,4.9975,4.9979,4.9989,5.0006,5.0008,4.9995,4.9995,5.0021,5.0024,5.0027,5.0053,5.0035,5.0037,5.0037,5.0095,5.0096,5.0097,0,0,0,0,0,0,4.993,4.9935,4.9978,4.9959,4.9965,4.9977,4.9988,4.999,4.9997,5.0009,5.0011,5.0001,5.0021,5.0024,5.0044,5.0054,5.0037,5.0039,5.0095,5.0096,5.0097,5.0104,0,0,0,0,0,0,4.9929,4.9935,4.9943,4.9959,4.9966,4.9996,4.9989,4.9991,5.0,5.0,5.0014,5.0016,5.0021,5.0041,5.0045,5.0056,5.004,5.0094,5.0095,5.0096,5.0103,5.0105,5.0107,0,0,0,0,0,4.9927,4.9943,4.9944,4.9949,4.9976,4.9996,5.0,5.0006,5.0001,5.0009,5.0017,5.0016,5.0052,5.0043,5.0048,5.0059,5.0093,5.0095,5.0096,5.0102,5.0105,5.0107,0,0,0,0,0,0,4.9926,4.9945,4.9946,4.9968,4.9981,4.9996,5.0007,5.0008,5.0021,5.002,5.0026,5.0029,5.0049,5.0055,5.0046,5.008,5.0072,5.0074,5.0075,5.0078,5.008,5.0078,5.0041,0,0,0,0,0,4.9929,4.9945,4.996,4.9978,4.9984,4.9995,5.0003,5.0007,5.002,5.0025,5.0034,5.0046,5.006,5.0069,5.0082,5.0104,5.0108,5.0113,5.0115,5.0117,5.0119,5.0133,5.0136,5.0102,5.0102,5.0102,0,0,4.9934,4.9947,4.9956,4.9978,4.9988,5.0004,4.9999,5.0015,5.0027,5.0027,5.0047,5.0054,5.0067,5.0088,5.0098,5.0094,5.013,5.0119,5.012,5.0122,5.0135,5.0138,5.0141,5.0103,5.0102,5.0102,0,0,4.9952,4.9963,4.998,4.9991,5.0007,5.0014,5.0018,5.0034,5.0039,5.006,5.006,5.0074,5.0097,5.0107,5.0116,5.0139,5.0139,5.0143,5.0154,5.0167,5.017,5.0172,5.0182,5.0185,5.0145,5.0145,5.0145,0,4.9957,4.9982,4.9989,5.0006,5.0016,5.0018,5.0036,5.0046,5.0065,5.0071,5.0067,5.0099,5.0107,5.0132,5.0138,5.0144,5.0149,5.0142,5.0169,5.0172,5.0174,5.0183,5.0187,5.0146,5.0146,5.0146,5.0145,0,4.9987,5.0004,5.0016,5.0037,5.0048,5.0065,5.0074,5.0085,5.0088,5.0095,5.0116,5.0127,5.0143,5.0149,5.0151,5.0174,5.0171,5.0168,5.016,5.0178,5.0187,5.019,5.0146,5.0146,5.0146,5.0146,0,0,5.0005,5.0031,5.0036,5.0046,5.0064,5.0077,5.0094,5.0112,5.0122,5.0134,5.015,5.017,5.0168,5.0177,5.018,5.0192,5.0212,5.0187,5.0187,5.0192,5.0239,5.0243,5.0247,5.0211,5.0212,5.0212,5.0239,0,5.0027,5.006,5.0067,5.0095,5.0111,5.0114,5.0129,5.0142,5.0149,5.0164,5.0171,5.0187,5.0181,5.0187,5.0199,5.0207,5.0221,5.0205,5.0225,5.0226,5.0224,5.0251,5.0255,5.0279,5.0242,5.0242,5.0243,0,5.0056,5.0073,5.0103,5.0121,5.0128,5.0142,5.0159,5.0173,5.0187,5.0192,5.0203,5.0206,5.0224,5.0214,5.0239,5.0228,5.0237,5.0242,5.0243,5.0246,5.0236,5.0256,5.0287,5.0291,5.0248,5.0248,5.0247,0,5.0069,5.0098,5.012,5.0128,5.0149,5.0159,5.0168,5.0183,5.0193,5.0208,5.0215,5.0231,5.024,5.0252,5.0259,5.0252,5.0284,5.0275,5.0289,5.0289,5.0296,5.0296,5.033,5.03,5.03,5.03,5.0299,0,5.0093,5.0111,5.0127,5.014,5.0161,5.0169,5.019,5.0198,5.0211,5.0227,5.0229,5.0243,5.025,5.0265,5.027,5.0291,5.0294,5.0299,5.03,5.03,5.0299,5.0306,5.0305,5.0301,5.03,5.03,5.03,0,5.0111,5.0121,5.0146,5.0165,5.017,5.0185,5.0201,5.0214,5.0222,5.0241,5.0246,5.0258,5.0276,5.0284,5.0305,5.0308,5.0333,5.0332,5.0328,5.0329,5.0343,5.0342,5.0384,5.039,5.0354,5.0354,5.0355,0,5.0126,5.0141,5.0162,5.0173,5.0183,5.0201,5.0213,5.0221,5.0233,5.0251,5.0263,5.0281,5.0296,5.0325,5.0335,5.0351,5.0352,5.0365,5.0354,5.0354,5.0354,5.0354,5.0356,5.0368,5.0368,5.0368,5.0369,0,5.0152,5.0158,5.0175,5.0195,5.0209,5.0225,5.024,5.0248,5.0259,5.0272,5.0292,5.0304,5.0327,5.0345,5.0363,5.0371,5.0372,5.0372,5.0376,5.0376,5.0375,5.0378,5.0336,5.0371,5.0371,5.0371,5.0371,5.037,5.017,5.0185,5.0202,5.0222,5.0235,5.0249,5.0264,5.0274,5.0291,5.0312,5.0315,5.0336,5.0351,5.0375,5.0384,5.04,5.0397,5.0403,5.0405,5.0406,5.0408,5.0371,5.0403,5.0403,5.0403,5.0403,5.0403,0,5.0198,5.0211,5.0229,5.0251,5.0267,5.0267,5.0284,5.0297,5.0316,5.0331,5.0347,5.0369,5.0388,5.04,5.0418,5.0429,5.043,5.0434,5.0434,5.0436,5.0409,5.0405,5.0433,5.0433,5.0433,5.0433,5.0433,5.0433,5.0215,5.024,5.0247,5.0278,5.0289,5.0312,5.0322,5.0335,5.0347,5.0373,5.0389,5.0397,5.0411,5.0431,5.0448,5.0451,5.0458,5.0462,5.0465,5.044,5.0437,5.0434,5.043,5.0463,5.0463,5.0491,5.0491,5.0491]}]]